CZ-6A DEB, 54321

Orbit data source: Space-Track

CZ-6A DEB, 54321 is space debris in SSO originally from a launch on Fri, 11 Nov 2022 UTC launched from the Taiyaun Space Center, China (TSC). Debris objects in space refer to the collection of defunct objects orbiting the Earth. Examples of debris include non-operational satellites, rocket bodies, and fragments generated from explosions, collisions, or faulty payload assembly.

Loading next visibility...
Identifier
54321, 2022-151BQ
Orbit
SSO
Country
Flag of CNCN / PRC
Related business
Manufacturer
SAST
Mission
Spacecraft
Bus & Motor
Unknown
Mass
Unknown
Launch date (UTC)
2022-11-11 (3 years ago)
Launch vehicle
Unknown
Launch site
Taiyaun Space Center, China (TSC)
Object type
Payload
Rocket body
Debris
Shape & HBR
Unknown shape, 0.1 m
Radar Cross Section
Small (<0.1 m²)

Expand to show TLE details & history
Last TLE update: 12 hours ago

TLE from 12 hours ago
0 CZ-6A DEB
1 54321U 22151BQ  25350.36657736  .00000961  00000-0  28690-3 0  9998
2 54321  98.6188  22.2355 0121746 179.1980 180.9426 14.41134974161963
Epoch: 2025-12-16T08:47Z
TLE epoch observation values (Epoch: 2025-12-16T08:47:52.283Z)
Latitude
-0.00006°
Longitude
165.01585°
Altitude
844.544 km
Speed
7.385 km/s
True Right ascension
01h 28m 56s
True Declination
0° 00' 00"
Sunlit
Object was in daylight at epoch
Visualization orbit readout
Latitude
Unknown
Longitude
Unknown
Altitude
Unknown
Speed
Unknown
Apparent Right ascension
Unknown
Apparent Declination
Unknown
Sunlit
N/A
Visualization observer readout
Local Sidereal Time
19:42:28
Azimuth
Unknown
Elevation
Unknown
Doppler factor
Unknown
Orbital elements
Apogee altitude
838.681 km
Perigee altitude
665.071 km
Semi-major axis
7,130.013 km
Eccentricity
0.01217
Inclination
98.6188°
RAAN
22.2355°
Arg. of periapsis
179.198°
True anomaly
180.91999°
Mean anomaly
180.9426°
Eccentric anomaly
180.93126°
Mean motion
3.60502 °/min
Orbital period
99.86 mins
BSTAR
0.0002869
Loading maneuver chart data...
Computing Atmospheric mass density...
Loading historical data...
Loading historical data...
Loading historical data...
Loading historical data...
Loading historical data...
Loading historical data...
Loading historical data...

Documentation

Showing up to 5 results
|